DMSP 5D-2 F13 DEB, 40509

Orbit data source: Space-Track

DMSP 5D-2 F13 DEB, 40509 is space debris in SSO originally from a launch on Fri, 24 Mar 1995 UTC launched from the Air Force Western Test Range (AFWTR). Debris objects in space refer to the collection of defunct objects orbiting the Earth. Examples of debris include non-operational satellites, rocket bodies, and fragments generated from explosions, collisions, or faulty payload assembly.

Loading next visibility...
Identifier
40509, 1995-015CV
Orbit
SSO
Country
Flag of USUS
Related business
Manufacturer
Unknown
Mission
Spacecraft
Bus & Motor
Unknown
Mass
Unknown
Launch date (UTC)
1995-03-24 (31 years ago)
Launch vehicle
Unknown
Launch site
Air Force Western Test Range (AFWTR)
Object type
Payload
Rocket body
Debris
Shape & HBR
Unknown shape, 0.1 m
Radar Cross Section
Small (<0.1 m²)

Expand to show TLE details & history
Last TLE update: 3 days ago

TLE from 3 days ago
0 DMSP 5D-2 F13 DEB
1 40509U 95015CV  26124.49330619  .00000429  00000-0  20947-3 0  9998
2 40509  98.6477 141.5025 0024564 102.2870 258.1061 14.22857417576439
Epoch: 2026-05-04T11:50Z
TLE epoch observation values (Epoch: 2026-05-04T11:50:21.654Z)
Latitude
Longitude
101.53056°
Altitude
822.31 km
Speed
7.44 km/s
True Right ascension
09h 26m 00s
True Declination
0° 00' 00"
Sunlit
Object was in daylight at epoch
Visualization orbit readout
Latitude
Unknown
Longitude
Unknown
Altitude
Unknown
Speed
Unknown
Apparent Right ascension
Unknown
Apparent Declination
Unknown
Sunlit
N/A
Visualization observer readout
Local Sidereal Time
03:53:36
Azimuth
Unknown
Elevation
Unknown
Doppler factor
Unknown
Orbital elements
Apogee altitude
830.521 km
Perigee altitude
795.193 km
Semi-major axis
7,190.994 km
Eccentricity
0.00246
Inclination
98.6477°
RAAN
141.5025°
Arg. of periapsis
102.287°
True anomaly
257.83084°
Mean anomaly
258.1061°
Eccentric anomaly
257.96845°
Mean motion
3.55926 °/min
Orbital period
101.14 mins
BSTAR
0.00020947

Documentation

Showing up to 5 results
|